Time,TemperatureF,DewpointF,PressureIn,WindDirection,WindDirectionDegrees,WindSpeedMPH,WindSpeedGustMPH,Humidity,HourlyPrecipIn,Conditions,Clouds,dailyrainin,SoftwareType,DateUTC
2013-04-12 00:00:00,73.2,72.9,29.77,West,270,9.0,11.0,99,0.00,,,0.00,meteohub,2013-04-12 04:00:00,
2013-04-12 00:01:00,73.2,72.9,29.76,NW,315,9.0,11.0,99,0.00,,,0.00,meteohub,2013-04-12 04:01:00,
2013-04-12 00:05:00,73.2,72.9,29.76,NW,315,12.0,14.0,99,0.00,,,0.00,meteohub,2013-04-12 04:05:00,
2013-04-12 00:11:00,73.2,72.9,29.76,SW,225,8.0,14.0,99,0.00,,,0.00,meteohub,2013-04-12 04:11:00,
2013-04-12 00:16:00,73.0,72.7,29.75,NW,315,14.0,14.0,99,0.00,,,0.00,meteohub,2013-04-12 04:16:00,
2013-04-12 00:21:00,73.2,72.9,29.75,NW,315,8.0,15.0,99,0.00,,,0.00,meteohub,2013-04-12 04:21:00,
2013-04-12 00:26:00,73.2,72.9,29.75,SW,225,6.0,15.0,99,0.00,,,0.00,meteohub,2013-04-12 04:26:00,
2013-04-12 00:32:00,73.2,72.9,29.75,SW,225,18.0,18.0,99,0.00,,,0.00,meteohub,2013-04-12 04:32:00,
2013-04-12 00:37:00,73.2,72.9,29.75,West,270,10.0,18.0,99,0.00,,,0.00,meteohub,2013-04-12 04:37:00,
2013-04-12 00:42:00,73.2,72.9,29.76,WNW,293,10.0,18.0,99,0.00,,,0.00,meteohub,2013-04-12 04:42:00,
2013-04-12 00:47:00,73.2,72.9,29.75,NW,315,9.0,18.0,99,0.00,,,0.00,meteohub,2013-04-12 04:47:00,
2013-04-12 00:52:00,73.2,72.9,29.76,South,180,11.0,15.0,99,0.00,,,0.00,meteohub,2013-04-12 04:52:00,
2013-04-12 00:57:00,73.2,72.9,29.76,West,270,11.0,15.0,99,0.00,,,0.00,meteohub,2013-04-12 04:57:00,
2013-04-12 01:02:00,73.4,73.0,29.75,West,270,11.0,14.0,99,0.00,,,0.00,meteohub,2013-04-12 05:02:00,
2013-04-12 01:07:00,73.4,73.0,29.75,WNW,293,8.0,15.0,99,0.00,,,0.00,meteohub,2013-04-12 05:07:00,
2013-04-12 01:12:00,73.4,73.0,29.75,SSW,203,9.0,15.0,99,0.00,,,0.00,meteohub,2013-04-12 05:12:00,
2013-04-12 01:17:00,73.4,73.0,29.75,NW,315,8.0,15.0,99,0.00,,,0.00,meteohub,2013-04-12 05:17:00,
2013-04-12 01:22:00,73.4,73.0,29.74,South,180,9.0,15.0,99,0.00,,,0.00,meteohub,2013-04-12 05:22:00,
2013-04-12 01:27:00,73.4,73.0,29.74,NW,315,10.0,14.0,99,0.00,,,0.00,meteohub,2013-04-12 05:27:00,
2013-04-12 01:32:00,73.4,73.0,29.73,SW,225,12.0,14.0,99,0.00,,,0.00,meteohub,2013-04-12 05:32:00,
2013-04-12 01:37:00,73.4,73.0,29.73,West,270,8.0,13.0,99,0.00,,,0.00,meteohub,2013-04-12 05:37:00,
2013-04-12 01:42:00,73.4,73.0,29.73,West,270,14.0,17.0,99,0.00,,,0.00,meteohub,2013-04-12 05:42:00,
2013-04-12 01:47:00,73.4,73.0,29.73,West,270,15.0,17.0,99,0.00,,,0.00,meteohub,2013-04-12 05:47:00,
2013-04-12 01:52:00,73.2,72.9,29.73,SW,225,8.0,16.0,99,0.00,,,0.00,meteohub,2013-04-12 05:52:00,
2013-04-12 01:57:00,73.2,72.9,29.74,West,270,19.0,21.0,99,0.00,,,0.00,meteohub,2013-04-12 05:57:00,
2013-04-12 02:02:00,73.2,72.9,29.74,West,270,11.0,21.0,99,0.00,,,0.00,meteohub,2013-04-12 06:02:00,
2013-04-12 02:07:00,73.2,72.9,29.74,NW,315,15.0,19.0,99,0.00,,,0.00,meteohub,2013-04-12 06:07:00,
2013-04-12 02:12:00,73.0,72.7,29.73,WNW,293,11.0,19.0,99,0.00,,,0.00,meteohub,2013-04-12 06:12:00,
2013-04-12 02:17:00,73.0,72.7,29.73,North,0,17.0,17.0,99,0.00,,,0.00,meteohub,2013-04-12 06:17:00,
2013-04-12 02:22:00,73.0,72.7,29.74,NW,315,8.0,22.0,99,0.00,,,0.00,meteohub,2013-04-12 06:22:00,
2013-04-12 02:27:00,72.5,72.1,29.73,NW,315,10.0,22.0,99,0.02,,,0.02,meteohub,2013-04-12 06:27:00,
2013-04-12 02:32:00,72.0,71.6,29.73,North,0,10.0,22.0,99,0.04,,,0.04,meteohub,2013-04-12 06:32:00,
2013-04-12 02:37:00,71.8,71.4,29.73,West,270,7.0,15.0,99,0.04,,,0.04,meteohub,2013-04-12 06:37:00,
2013-04-12 02:42:00,71.8,71.4,29.73,NW,315,11.0,15.0,99,0.04,,,0.04,meteohub,2013-04-12 06:42:00,
2013-04-12 02:47:00,71.8,71.4,29.72,West,270,7.0,12.0,99,0.04,,,0.04,meteohub,2013-04-12 06:47:00,
2013-04-12 02:52:00,71.6,71.2,29.72,NW,315,8.0,15.0,99,0.04,,,0.04,meteohub,2013-04-12 06:52:00,
2013-04-12 02:57:00,71.6,71.2,29.72,SW,225,5.0,15.0,99,0.04,,,0.04,meteohub,2013-04-12 06:57:00,
2013-04-12 03:02:00,71.6,71.2,29.72,SW,225,8.0,15.0,99,0.04,,,0.04,meteohub,2013-04-12 07:02:00,
2013-04-12 03:08:00,71.6,71.2,29.72,NW,315,8.0,11.0,99,0.04,,,0.04,meteohub,2013-04-12 07:08:00,
2013-04-12 03:13:00,71.6,71.2,29.71,West,270,4.0,9.0,99,0.04,,,0.04,meteohub,2013-04-12 07:13:00,
2013-04-12 03:18:00,71.4,71.1,29.71,SSW,203,5.0,9.0,99,0.04,,,0.04,meteohub,2013-04-12 07:18:00,
2013-04-12 03:23:00,71.4,71.1,29.71,West,270,4.0,9.0,99,0.04,,,0.04,meteohub,2013-04-12 07:23:00,
2013-04-12 03:28:00,71.2,70.9,29.70,West,270,8.0,9.0,99,0.01,,,0.04,meteohub,2013-04-12 07:28:00,
2013-04-12 03:34:00,71.1,70.7,29.70,West,270,3.0,9.0,99,0.00,,,0.04,meteohub,2013-04-12 07:34:00,
2013-04-12 03:39:00,71.1,70.7,29.69,South,180,7.0,8.0,99,0.00,,,0.04,meteohub,2013-04-12 07:39:00,
2013-04-12 03:44:00,71.1,70.7,29.69,WNW,293,6.0,8.0,99,0.00,,,0.04,meteohub,2013-04-12 07:44:00,
2013-04-12 03:49:00,71.1,70.7,29.68,West,270,7.0,8.0,99,0.00,,,0.04,meteohub,2013-04-12 07:49:00,
2013-04-12 03:55:00,71.1,70.7,29.67,SW,225,5.0,8.0,99,0.00,,,0.04,meteohub,2013-04-12 07:55:00,
2013-04-12 04:00:00,71.2,70.9,29.66,West,270,7.0,9.0,99,0.00,,,0.04,meteohub,2013-04-12 08:00:00,
2013-04-12 04:05:00,71.2,70.9,29.64,NE,45,5.0,9.0,99,0.00,,,0.04,meteohub,2013-04-12 08:05:00,
2013-04-12 04:10:00,71.2,70.9,29.66,West,270,9.0,9.0,99,0.00,,,0.04,meteohub,2013-04-12 08:10:00,
2013-04-12 04:15:00,71.2,70.9,29.66,West,270,5.0,9.0,99,0.00,,,0.04,meteohub,2013-04-12 08:15:00,
2013-04-12 04:20:00,71.2,70.9,29.66,NW,315,3.0,9.0,99,0.00,,,0.04,meteohub,2013-04-12 08:20:00,
2013-04-12 04:25:00,71.2,70.9,29.67,WNW,293,6.0,9.0,99,0.00,,,0.04,meteohub,2013-04-12 08:25:00,
2013-04-12 04:30:00,71.2,70.9,29.67,West,270,7.0,9.0,99,0.00,,,0.04,meteohub,2013-04-12 08:30:00,
2013-04-12 04:36:00,71.2,70.9,29.66,WNW,293,4.0,9.0,99,0.00,,,0.04,meteohub,2013-04-12 08:36:00,
2013-04-12 04:41:00,71.2,70.9,29.67,West,270,4.0,9.0,99,0.00,,,0.04,meteohub,2013-04-12 08:41:00,
2013-04-12 04:47:00,71.2,70.9,29.66,NW,315,3.0,8.0,99,0.00,,,0.04,meteohub,2013-04-12 08:47:00,
2013-04-12 04:52:00,71.2,70.9,29.67,NW,315,4.0,8.0,99,0.00,,,0.04,meteohub,2013-04-12 08:52:00,
2013-04-12 04:57:00,71.2,70.9,29.67,West,270,8.0,8.0,99,0.00,,,0.04,meteohub,2013-04-12 08:57:00,
2013-04-12 05:02:00,71.2,70.9,29.67,NW,315,6.0,8.0,99,0.00,,,0.04,meteohub,2013-04-12 09:02:00,
2013-04-12 05:07:00,71.4,71.1,29.68,West,270,4.0,8.0,99,0.00,,,0.04,meteohub,2013-04-12 09:07:00,
2013-04-12 05:12:00,71.4,71.1,29.68,NW,315,8.0,8.0,99,0.00,,,0.04,meteohub,2013-04-12 09:12:00,
2013-04-12 05:18:00,71.4,71.1,29.68,West,270,6.0,8.0,99,0.00,,,0.04,meteohub,2013-04-12 09:18:00,
2013-04-12 05:23:00,71.6,71.2,29.68,West,270,5.0,8.0,99,0.00,,,0.04,meteohub,2013-04-12 09:23:00,
2013-04-12 05:28:00,71.6,71.2,29.68,West,270,7.0,8.0,99,0.00,,,0.04,meteohub,2013-04-12 09:28:00,
2013-04-12 05:34:00,71.6,71.2,29.68,WNW,293,5.0,8.0,99,0.00,,,0.04,meteohub,2013-04-12 09:34:00,
2013-04-12 05:39:00,71.6,71.2,29.68,West,270,8.0,8.0,99,0.00,,,0.04,meteohub,2013-04-12 09:39:00,
2013-04-12 05:44:00,71.6,71.2,29.68,West,270,4.0,8.0,99,0.00,,,0.04,meteohub,2013-04-12 09:44:00,
2013-04-12 05:49:00,71.6,71.2,29.68,South,180,4.0,8.0,99,0.00,,,0.04,meteohub,2013-04-12 09:49:00,
2013-04-12 05:54:00,71.6,71.2,29.68,West,270,7.0,8.0,99,0.00,,,0.04,meteohub,2013-04-12 09:54:00,
2013-04-12 06:00:00,71.6,71.2,29.69,WSW,248,5.0,8.0,99,0.00,,,0.04,meteohub,2013-04-12 10:00:00,
2013-04-12 06:05:00,71.8,71.4,29.69,West,270,4.0,7.0,99,0.00,,,0.04,meteohub,2013-04-12 10:05:00,
2013-04-12 06:10:00,71.8,71.4,29.68,North,0,4.0,7.0,99,0.00,,,0.04,meteohub,2013-04-12 10:10:00,
2013-04-12 06:16:00,71.6,71.2,29.68,West,270,2.0,7.0,99,0.00,,,0.04,meteohub,2013-04-12 10:16:00,
2013-04-12 06:21:00,71.6,71.2,29.68,West,270,4.0,7.0,99,0.00,,,0.04,meteohub,2013-04-12 10:21:00,
2013-04-12 06:26:00,71.6,71.2,29.68,West,270,4.0,7.0,99,0.00,,,0.04,meteohub,2013-04-12 10:26:00,
2013-04-12 06:31:00,71.6,71.2,29.68,West,270,4.0,6.0,99,0.00,,,0.04,meteohub,2013-04-12 10:31:00,
2013-04-12 06:36:00,71.6,71.2,29.68,SW,225,1.0,6.0,99,0.00,,,0.04,meteohub,2013-04-12 10:36:00,
2013-04-12 06:42:00,71.4,71.1,29.68,WSW,248,4.0,5.0,99,0.00,,,0.04,meteohub,2013-04-12 10:42:00,
2013-04-12 06:47:00,71.4,71.1,29.68,West,270,2.0,4.0,99,0.00,,,0.04,meteohub,2013-04-12 10:47:00,
2013-04-12 06:52:00,71.2,70.9,29.68,NW,315,2.0,4.0,99,0.00,,,0.04,meteohub,2013-04-12 10:52:00,
2013-04-12 06:57:00,71.2,70.9,29.68,West,270,2.0,4.0,99,0.00,,,0.04,meteohub,2013-04-12 10:57:00,
2013-04-12 07:02:00,71.1,70.7,29.68,SW,225,1.0,4.0,99,0.00,,,0.04,meteohub,2013-04-12 11:02:00,
2013-04-12 07:07:00,71.1,70.7,29.69,SW,225,2.0,4.0,99,0.00,,,0.04,meteohub,2013-04-12 11:07:00,
2013-04-12 07:12:00,71.1,70.7,29.68,South,180,2.0,4.0,99,0.00,,,0.04,meteohub,2013-04-12 11:12:00,
2013-04-12 07:18:00,71.1,70.7,29.69,NW,315,2.0,4.0,99,0.00,,,0.04,meteohub,2013-04-12 11:18:00,
2013-04-12 07:23:00,71.1,70.7,29.69,West,270,2.0,3.0,99,0.00,,,0.04,meteohub,2013-04-12 11:23:00,
2013-04-12 07:28:00,71.1,70.7,29.69,NW,315,3.0,3.0,99,0.00,,,0.04,meteohub,2013-04-12 11:28:00,
2013-04-12 07:33:00,71.1,70.7,29.69,SW,225,2.0,4.0,99,0.00,,,0.04,meteohub,2013-04-12 11:33:00,
2013-04-12 07:38:00,71.1,70.7,29.70,SW,225,3.0,4.0,99,0.00,,,0.04,meteohub,2013-04-12 11:38:00,
2013-04-12 07:44:00,71.2,70.9,29.70,NW,315,5.0,5.0,99,0.00,,,0.04,meteohub,2013-04-12 11:44:00,
2013-04-12 07:49:00,71.4,71.1,29.70,NW,315,3.0,5.0,99,0.00,,,0.04,meteohub,2013-04-12 11:49:00,
2013-04-12 07:54:00,71.4,71.1,29.70,WNW,293,2.0,5.0,99,0.00,,,0.04,meteohub,2013-04-12 11:54:00,
2013-04-12 07:59:00,71.6,71.2,29.70,South,180,0.0,5.0,99,0.00,,,0.04,meteohub,2013-04-12 11:59:00,
2013-04-12 08:05:00,71.6,71.2,29.70,South,180,4.0,4.0,99,0.00,,,0.04,meteohub,2013-04-12 12:05:00,
2013-04-12 08:10:00,71.6,71.2,29.71,SW,225,3.0,4.0,99,0.00,,,0.04,meteohub,2013-04-12 12:10:00,
2013-04-12 08:15:00,71.4,71.1,29.71,NW,315,3.0,4.0,99,0.00,,,0.04,meteohub,2013-04-12 12:15:00,
2013-04-12 08:20:00,71.8,71.4,29.71,NW,315,3.0,4.0,99,0.00,,,0.04,meteohub,2013-04-12 12:20:00,
2013-04-12 08:25:00,72.0,71.6,29.72,West,270,2.0,4.0,99,0.00,,,0.04,meteohub,2013-04-12 12:25:00,
2013-04-12 08:30:00,72.0,71.6,29.72,SE,135,3.0,4.0,99,0.00,,,0.04,meteohub,2013-04-12 12:30:00,
2013-04-12 08:36:00,72.1,71.8,29.72,West,270,4.0,4.0,99,0.00,,,0.04,meteohub,2013-04-12 12:36:00,
2013-04-12 08:41:00,72.3,72.0,29.72,SE,135,3.0,7.0,99,0.00,,,0.04,meteohub,2013-04-12 12:41:00,
2013-04-12 08:46:00,73.0,72.7,29.72,West,270,4.0,7.0,99,0.00,,,0.04,meteohub,2013-04-12 12:46:00,
2013-04-12 08:51:00,73.8,73.4,29.72,West,270,2.0,4.0,99,0.00,,,0.04,meteohub,2013-04-12 12:51:00,
2013-04-12 08:57:00,74.3,73.9,29.73,West,270,2.0,5.0,99,0.00,,,0.04,meteohub,2013-04-12 12:57:00,
2013-04-12 09:02:00,75.2,74.8,29.72,South,180,3.0,5.0,99,0.00,,,0.04,meteohub,2013-04-12 13:02:00,
2013-04-12 09:07:00,75.9,75.6,29.72,West,270,3.0,5.0,99,0.00,,,0.04,meteohub,2013-04-12 13:07:00,
2013-04-12 09:12:00,76.8,76.5,29.72,West,270,4.0,5.0,99,0.00,,,0.04,meteohub,2013-04-12 13:12:00,
2013-04-12 09:17:00,76.6,76.3,29.72,SW,225,5.0,5.0,99,0.00,,,0.04,meteohub,2013-04-12 13:17:00,
2013-04-12 09:23:00,76.5,76.1,29.72,NW,315,2.0,5.0,99,0.00,,,0.04,meteohub,2013-04-12 13:23:00,
2013-04-12 09:28:00,76.5,76.1,29.71,West,270,6.0,6.0,99,0.00,,,0.04,meteohub,2013-04-12 13:28:00,
2013-04-12 09:34:00,77.2,76.8,29.71,SSW,203,4.0,6.0,99,0.00,,,0.04,meteohub,2013-04-12 13:34:00,
2013-04-12 09:39:00,77.2,76.8,29.70,NW,315,4.0,6.0,99,0.00,,,0.04,meteohub,2013-04-12 13:39:00,
2013-04-12 09:44:00,78.4,78.1,29.71,West,270,3.0,6.0,99,0.00,,,0.04,meteohub,2013-04-12 13:44:00,
2013-04-12 09:49:00,78.3,77.9,29.71,NW,315,6.0,6.0,99,0.00,,,0.04,meteohub,2013-04-12 13:49:00,
2013-04-12 09:54:00,77.5,77.2,29.71,West,270,4.0,6.0,99,0.00,,,0.04,meteohub,2013-04-12 13:54:00,
2013-04-12 09:59:00,77.0,76.6,29.72,WNW,293,7.0,7.0,99,0.00,,,0.04,meteohub,2013-04-12 13:59:00,
2013-04-12 10:05:00,76.5,76.1,29.72,West,270,3.0,6.0,99,0.00,,,0.04,meteohub,2013-04-12 14:05:00,
2013-04-12 10:10:00,76.3,75.9,29.72,NW,315,4.0,7.0,99,0.00,,,0.04,meteohub,2013-04-12 14:10:00,
2013-04-12 10:15:00,76.5,76.1,29.72,SW,225,2.0,7.0,99,0.00,,,0.04,meteohub,2013-04-12 14:15:00,
2013-04-12 10:20:00,76.5,76.1,29.72,West,270,6.0,8.0,99,0.00,,,0.04,meteohub,2013-04-12 14:20:00,
2013-04-12 10:25:00,77.2,76.8,29.72,NW,315,5.0,8.0,99,0.00,,,0.04,meteohub,2013-04-12 14:25:00,
2013-04-12 10:30:00,77.9,77.5,29.72,NW,315,5.0,8.0,99,0.00,,,0.04,meteohub,2013-04-12 14:30:00,
2013-04-12 10:36:00,78.3,77.9,29.72,SW,225,3.0,8.0,99,0.00,,,0.04,meteohub,2013-04-12 14:36:00,
2013-04-12 10:41:00,78.4,78.1,29.72,NW,315,4.0,8.0,99,0.00,,,0.04,meteohub,2013-04-12 14:41:00,
2013-04-12 10:47:00,79.3,79.0,29.71,NW,315,6.0,6.0,99,0.00,,,0.04,meteohub,2013-04-12 14:47:00,
2013-04-12 10:52:00,80.1,79.7,29.72,East,90,4.0,6.0,99,0.00,,,0.04,meteohub,2013-04-12 14:52:00,
2013-04-12 10:57:00,79.9,79.5,29.72,West,270,9.0,9.0,99,0.00,,,0.04,meteohub,2013-04-12 14:57:00,
2013-04-12 11:02:00,79.2,78.8,29.72,NW,315,11.0,11.0,99,0.00,,,0.04,meteohub,2013-04-12 15:02:00,
2013-04-12 11:08:00,80.1,79.7,29.72,WNW,293,6.0,11.0,99,0.00,,,0.04,meteohub,2013-04-12 15:08:00,
2013-04-12 11:13:00,79.9,79.5,29.72,West,270,9.0,11.0,99,0.00,,,0.04,meteohub,2013-04-12 15:13:00,
2013-04-12 11:18:00,79.7,79.3,29.72,West,270,8.0,11.0,99,0.00,,,0.04,meteohub,2013-04-12 15:18:00,
2013-04-12 11:23:00,80.4,80.1,29.71,South,180,9.0,9.0,99,0.00,,,0.04,meteohub,2013-04-12 15:23:00,
2013-04-12 11:28:00,80.2,79.9,29.72,West,270,6.0,9.0,99,0.00,,,0.04,meteohub,2013-04-12 15:28:00,
2013-04-12 11:34:00,80.1,79.7,29.71,NW,315,5.0,10.0,99,0.00,,,0.04,meteohub,2013-04-12 15:34:00,
2013-04-12 11:39:00,81.3,81.0,29.71,NW,315,6.0,11.0,99,0.00,,,0.04,meteohub,2013-04-12 15:39:00,
2013-04-12 11:44:00,82.4,82.0,29.70,West,270,11.0,11.0,99,0.00,,,0.04,meteohub,2013-04-12 15:44:00,
2013-04-12 11:49:00,82.8,82.4,29.70,West,270,6.0,11.0,99,0.00,,,0.04,meteohub,2013-04-12 15:49:00,
2013-04-12 11:54:00,83.7,83.3,29.70,West,270,7.0,15.0,99,0.00,,,0.04,meteohub,2013-04-12 15:54:00,
2013-04-12 12:00:00,84.2,83.8,29.70,North,0,9.0,15.0,99,0.00,,,0.04,meteohub,2013-04-12 16:00:00,
2013-04-12 12:05:00,84.9,84.6,29.70,West,270,13.0,13.0,99,0.00,,,0.04,meteohub,2013-04-12 16:05:00,
2013-04-12 12:10:00,84.6,82.9,29.69,South,180,15.0,15.0,95,0.00,,,0.04,meteohub,2013-04-12 16:10:00,
2013-04-12 12:15:00,83.1,82.6,29.70,West,270,15.0,17.0,98,0.00,,,0.04,meteohub,2013-04-12 16:15:00,
2013-04-12 12:21:00,82.4,82.0,29.70,NW,315,12.0,17.0,99,0.00,,,0.04,meteohub,2013-04-12 16:21:00,
2013-04-12 12:26:00,82.2,81.9,29.69,NW,315,11.0,15.0,99,0.00,,,0.04,meteohub,2013-04-12 16:26:00,
2013-04-12 12:31:00,83.3,82.9,29.69,WNW,293,10.0,15.0,99,0.00,,,0.04,meteohub,2013-04-12 16:31:00,
2013-04-12 12:37:00,84.4,84.0,29.69,West,270,8.0,15.0,99,0.00,,,0.04,meteohub,2013-04-12 16:37:00,
2013-04-12 12:42:00,83.8,83.3,29.69,SW,225,8.0,15.0,98,0.00,,,0.04,meteohub,2013-04-12 16:42:00,
2013-04-12 12:47:00,84.4,83.8,29.68,NW,315,11.0,13.0,98,0.00,,,0.04,meteohub,2013-04-12 16:47:00,
2013-04-12 12:52:00,85.1,83.8,29.68,West,270,14.0,15.0,96,0.00,,,0.04,meteohub,2013-04-12 16:52:00,
2013-04-12 12:58:00,86.0,83.5,29.68,NW,315,15.0,15.0,92,0.00,,,0.04,meteohub,2013-04-12 16:58:00,
2013-04-12 13:03:00,85.3,82.4,29.68,WNW,293,14.0,15.0,91,0.00,,,0.04,meteohub,2013-04-12 17:03:00,
2013-04-12 13:08:00,85.5,83.1,29.68,SW,225,8.0,15.0,93,0.00,,,0.04,meteohub,2013-04-12 17:08:00,
2013-04-12 13:14:00,86.7,83.8,29.67,NW,315,6.0,15.0,91,0.00,,,0.04,meteohub,2013-04-12 17:14:00,
2013-04-12 13:19:00,86.7,82.0,29.67,NW,315,8.0,15.0,86,0.00,,,0.04,meteohub,2013-04-12 17:19:00,
2013-04-12 13:24:00,86.2,81.9,29.67,West,270,17.0,17.0,87,0.00,,,0.04,meteohub,2013-04-12 17:24:00,
2013-04-12 13:29:00,85.3,82.0,29.66,West,270,7.0,15.0,90,0.00,,,0.04,meteohub,2013-04-12 17:29:00,
2013-04-12 13:34:00,86.5,82.9,29.66,West,270,8.0,17.0,89,0.00,,,0.04,meteohub,2013-04-12 17:34:00,
2013-04-12 13:39:00,85.6,82.0,29.66,North,0,8.0,17.0,89,0.00,,,0.04,meteohub,2013-04-12 17:39:00,
2013-04-12 13:44:00,84.2,81.7,29.66,NW,315,12.0,14.0,92,0.00,,,0.04,meteohub,2013-04-12 17:44:00,
2013-04-12 13:50:00,80.4,80.1,29.68,NW,315,12.0,15.0,99,0.00,,,0.06,meteohub,2013-04-12 17:50:00,
2013-04-12 13:55:00,77.4,77.0,29.67,West,270,15.0,15.0,99,0.02,,,0.06,meteohub,2013-04-12 17:55:00,
2013-04-12 14:00:00,76.5,76.1,29.66,NW,315,7.0,19.0,99,0.06,,,0.09,meteohub,2013-04-12 18:00:00,
2013-04-12 14:05:00,76.8,76.5,29.66,West,270,4.0,19.0,99,0.06,,,0.09,meteohub,2013-04-12 18:05:00,
2013-04-12 14:10:00,78.1,77.7,29.66,West,270,2.0,11.0,99,0.06,,,0.09,meteohub,2013-04-12 18:10:00,
2013-04-12 14:16:00,80.1,79.7,29.66,South,180,6.0,9.0,99,0.06,,,0.09,meteohub,2013-04-12 18:16:00,
2013-04-12 14:22:00,82.6,82.2,29.66,West,270,2.0,6.0,99,0.06,,,0.09,meteohub,2013-04-12 18:22:00,
2013-04-12 14:27:00,84.4,84.0,29.66,NW,315,4.0,6.0,99,0.06,,,0.09,meteohub,2013-04-12 18:27:00,
2013-04-12 15:26:00,79.5,79.2,29.67,SSW,203,11.0,20.0,99,0.01,,,0.11,meteohub,2013-04-12 19:26:00,
2013-04-12 15:27:00,79.7,79.3,29.66,West,270,11.0,20.0,99,0.01,,,0.11,meteohub,2013-04-12 19:27:00,
2013-04-12 15:28:00,79.7,79.3,29.66,West,270,11.0,20.0,99,0.01,,,0.11,meteohub,2013-04-12 19:28:00,
2013-04-12 15:33:00,80.8,80.4,29.65,NW,315,9.0,20.0,99,0.01,,,0.11,meteohub,2013-04-12 19:33:00,
2013-04-12 15:38:00,82.9,82.6,29.66,NW,315,8.0,11.0,99,0.01,,,0.11,meteohub,2013-04-12 19:38:00,
2013-04-12 15:44:00,83.7,83.3,29.65,NW,315,7.0,12.0,99,0.01,,,0.11,meteohub,2013-04-12 19:44:00,
2013-04-12 15:49:00,83.8,83.3,29.65,NNW,338,8.0,12.0,98,0.01,,,0.11,meteohub,2013-04-12 19:49:00,
2013-04-12 15:54:00,84.2,83.3,29.65,North,0,7.0,11.0,97,0.01,,,0.11,meteohub,2013-04-12 19:54:00,
2013-04-12 15:59:00,84.4,83.1,29.64,NW,315,11.0,14.0,96,0.01,,,0.11,meteohub,2013-04-12 19:59:00,
2013-04-12 16:05:00,85.6,84.0,29.64,NNW,338,8.0,14.0,95,0.01,,,0.11,meteohub,2013-04-12 20:05:00,
2013-04-12 16:10:00,86.2,84.6,29.64,NW,315,7.0,15.0,95,0.00,,,0.11,meteohub,2013-04-12 20:10:00,
2013-04-12 16:15:00,86.9,84.2,29.64,NW,315,9.0,15.0,92,0.00,,,0.11,meteohub,2013-04-12 20:15:00,
2013-04-12 16:20:00,86.0,83.5,29.64,NW,315,8.0,12.0,92,0.00,,,0.11,meteohub,2013-04-12 20:20:00,
2013-04-12 16:25:00,83.8,82.2,29.64,North,0,6.0,9.0,95,0.00,,,0.11,meteohub,2013-04-12 20:25:00,
2013-04-12 16:31:00,82.4,82.0,29.64,West,270,5.0,9.0,99,0.00,,,0.11,meteohub,2013-04-12 20:31:00,
2013-04-12 16:37:00,83.7,83.3,29.64,West,270,3.0,9.0,99,0.00,,,0.11,meteohub,2013-04-12 20:37:00,
2013-04-12 16:42:00,83.7,83.3,29.65,NW,315,4.0,9.0,99,0.00,,,0.11,meteohub,2013-04-12 20:42:00,
2013-04-12 16:47:00,82.9,82.6,29.65,North,0,5.0,9.0,99,0.00,,,0.11,meteohub,2013-04-12 20:47:00,
2013-04-12 16:52:00,82.4,82.0,29.65,NW,315,7.0,8.0,99,0.00,,,0.11,meteohub,2013-04-12 20:52:00,
2013-04-12 16:57:00,82.6,82.2,29.65,NNW,338,8.0,8.0,99,0.00,,,0.11,meteohub,2013-04-12 20:57:00,
2013-04-12 17:02:00,81.7,81.3,29.65,North,0,5.0,8.0,99,0.00,,,0.11,meteohub,2013-04-12 21:02:00,
2013-04-12 17:07:00,81.3,81.0,29.65,NW,315,5.0,8.0,99,0.00,,,0.11,meteohub,2013-04-12 21:07:00,
2013-04-12 17:13:00,81.7,81.3,29.66,North,0,4.0,8.0,99,0.00,,,0.11,meteohub,2013-04-12 21:13:00,
2013-04-12 17:18:00,82.6,82.2,29.66,NW,315,8.0,8.0,99,0.00,,,0.11,meteohub,2013-04-12 21:18:00,
2013-04-12 17:23:00,83.5,83.1,29.66,NW,315,3.0,8.0,99,0.00,,,0.11,meteohub,2013-04-12 21:23:00,
2013-04-12 17:28:00,83.8,83.5,29.66,West,270,5.0,8.0,99,0.00,,,0.11,meteohub,2013-04-12 21:28:00,
2013-04-12 17:33:00,84.2,83.8,29.66,NW,315,4.0,8.0,99,0.00,,,0.11,meteohub,2013-04-12 21:33:00,
2013-04-12 17:38:00,84.6,84.0,29.66,NW,315,5.0,7.0,98,0.00,,,0.11,meteohub,2013-04-12 21:38:00,
2013-04-12 17:43:00,84.7,84.2,29.66,North,0,4.0,7.0,98,0.00,,,0.11,meteohub,2013-04-12 21:43:00,
2013-04-12 17:49:00,84.9,83.7,29.66,West,270,3.0,7.0,96,0.00,,,0.11,meteohub,2013-04-12 21:49:00,
2013-04-12 17:54:00,84.7,82.2,29.66,West,270,5.0,7.0,92,0.00,,,0.11,meteohub,2013-04-12 21:54:00,
2013-04-12 17:59:00,84.6,82.6,29.66,NW,315,6.0,8.0,94,0.00,,,0.11,meteohub,2013-04-12 21:59:00,
2013-04-12 18:04:00,84.6,81.7,29.66,NW,315,6.0,8.0,91,0.00,,,0.11,meteohub,2013-04-12 22:04:00,
2013-04-12 18:09:00,84.6,81.7,29.66,West,270,7.0,8.0,91,0.00,,,0.11,meteohub,2013-04-12 22:09:00,
2013-04-12 18:15:00,84.2,81.3,29.66,WSW,248,6.0,8.0,91,0.00,,,0.11,meteohub,2013-04-12 22:15:00,
2013-04-12 18:20:00,83.3,80.8,29.66,West,270,4.0,8.0,92,0.00,,,0.11,meteohub,2013-04-12 22:20:00,
2013-04-12 18:25:00,82.0,80.4,29.66,North,0,4.0,8.0,95,0.00,,,0.11,meteohub,2013-04-12 22:25:00,
2013-04-12 18:30:00,81.7,80.1,29.66,WNW,293,2.0,8.0,95,0.00,,,0.11,meteohub,2013-04-12 22:30:00,
2013-04-12 18:35:00,81.5,80.6,29.67,North,0,1.0,5.0,97,0.00,,,0.11,meteohub,2013-04-12 22:35:00,
2013-04-12 18:41:00,81.5,81.0,29.67,West,270,3.0,4.0,98,0.00,,,0.11,meteohub,2013-04-12 22:41:00,
2013-04-12 18:46:00,81.7,81.1,29.67,NW,315,2.0,4.0,98,0.00,,,0.11,meteohub,2013-04-12 22:46:00,
2013-04-12 18:51:00,81.3,80.4,29.67,North,0,3.0,4.0,97,0.00,,,0.11,meteohub,2013-04-12 22:51:00,
2013-04-12 18:56:00,81.3,80.8,29.67,West,270,2.0,4.0,98,0.00,,,0.11,meteohub,2013-04-12 22:56:00,
2013-04-12 19:02:00,82.0,80.1,29.67,West,270,6.0,6.0,94,0.00,,,0.11,meteohub,2013-04-12 23:02:00,
2013-04-12 19:07:00,82.4,80.4,29.68,NNW,338,4.0,7.0,94,0.00,,,0.11,meteohub,2013-04-12 23:07:00,
2013-04-12 19:12:00,82.0,79.9,29.68,West,270,4.0,7.0,93,0.00,,,0.11,meteohub,2013-04-12 23:12:00,
2013-04-12 19:17:00,81.5,79.9,29.68,NW,315,3.0,7.0,95,0.00,,,0.11,meteohub,2013-04-12 23:17:00,
2013-04-12 19:22:00,80.6,79.7,29.68,West,270,2.0,6.0,97,0.00,,,0.11,meteohub,2013-04-12 23:22:00,
2013-04-12 19:27:00,79.7,79.2,29.68,West,270,4.0,6.0,98,0.00,,,0.11,meteohub,2013-04-12 23:27:00,
2013-04-12 19:32:00,79.0,78.4,29.68,NNW,338,4.0,6.0,98,0.00,,,0.11,meteohub,2013-04-12 23:32:00,
2013-04-12 19:37:00,78.6,78.3,29.69,West,270,4.0,7.0,99,0.00,,,0.11,meteohub,2013-04-12 23:37:00,
2013-04-12 19:42:00,78.3,77.9,29.69,West,270,5.0,7.0,99,0.00,,,0.11,meteohub,2013-04-12 23:42:00,
2013-04-12 19:47:00,77.9,77.5,29.70,NW,315,4.0,7.0,99,0.00,,,0.11,meteohub,2013-04-12 23:47:00,
2013-04-12 19:53:00,77.5,77.2,29.69,NW,315,2.0,5.0,99,0.00,,,0.11,meteohub,2013-04-12 23:53:00,
2013-04-12 19:58:00,77.4,77.0,29.69,West,270,2.0,5.0,99,0.00,,,0.11,meteohub,2013-04-12 23:58:00,
2013-04-12 20:03:00,77.2,76.8,29.69,West,270,2.0,5.0,99,0.00,,,0.11,meteohub,2013-04-13 00:03:00,
2013-04-12 20:08:00,76.8,76.5,29.69,NW,315,2.0,4.0,99,0.00,,,0.11,meteohub,2013-04-13 00:08:00,
2013-04-12 20:13:00,76.6,76.3,29.70,SW,225,2.0,4.0,99,0.00,,,0.11,meteohub,2013-04-13 00:13:00,
2013-04-12 20:18:00,76.5,76.1,29.70,South,180,0.0,4.0,99,0.00,,,0.11,meteohub,2013-04-13 00:18:00,
2013-04-12 20:24:00,76.1,75.7,29.70,South,180,2.0,4.0,99,0.00,,,0.11,meteohub,2013-04-13 00:24:00,
2013-04-12 20:29:00,75.4,75.0,29.70,North,0,1.0,4.0,99,0.00,,,0.11,meteohub,2013-04-13 00:29:00,
2013-04-12 20:34:00,75.2,74.8,29.70,West,270,1.0,2.0,99,0.00,,,0.11,meteohub,2013-04-13 00:34:00,
2013-04-12 20:40:00,74.8,74.5,29.70,SE,135,0.0,2.0,99,0.00,,,0.11,meteohub,2013-04-13 00:40:00,
2013-04-12 20:45:00,74.3,73.9,29.70,SW,225,0.0,2.0,99,0.00,,,0.11,meteohub,2013-04-13 00:45:00,
2013-04-12 20:50:00,73.6,73.2,29.70,SW,225,0.0,1.0,99,0.00,,,0.11,meteohub,2013-04-13 00:50:00,
2013-04-12 20:56:00,73.0,72.7,29.71,NW,315,1.0,1.0,99,0.00,,,0.11,meteohub,2013-04-13 00:56:00,
2013-04-12 21:01:00,72.5,72.1,29.71,North,0,0.0,1.0,99,0.00,,,0.11,meteohub,2013-04-13 01:01:00,
2013-04-12 21:06:00,72.1,71.8,29.71,North,0,0.0,1.0,99,0.00,,,0.11,meteohub,2013-04-13 01:06:00,
2013-04-12 21:11:00,71.6,71.2,29.71,North,0,0.0,1.0,99,0.00,,,0.11,meteohub,2013-04-13 01:11:00,
2013-04-12 21:17:00,71.2,70.9,29.71,West,270,1.0,1.0,99,0.00,,,0.11,meteohub,2013-04-13 01:17:00,
2013-04-12 21:22:00,70.9,70.5,29.72,NW,315,1.0,2.0,99,0.00,,,0.11,meteohub,2013-04-13 01:22:00,
2013-04-12 21:27:00,70.7,70.3,29.71,North,0,2.0,2.0,99,0.00,,,0.11,meteohub,2013-04-13 01:27:00,
2013-04-12 21:32:00,70.3,70.0,29.72,NW,315,1.0,2.0,99,0.00,,,0.11,meteohub,2013-04-13 01:32:00,
2013-04-12 21:37:00,70.3,70.0,29.73,NW,315,1.0,2.0,99,0.00,,,0.11,meteohub,2013-04-13 01:37:00,
2013-04-12 21:42:00,70.2,69.8,29.73,NW,315,2.0,2.0,99,0.00,,,0.11,meteohub,2013-04-13 01:42:00,
2013-04-12 21:47:00,70.0,69.6,29.73,NW,315,2.0,2.0,99,0.00,,,0.11,meteohub,2013-04-13 01:47:00,
2013-04-12 21:52:00,69.8,69.4,29.74,NW,315,2.0,2.0,99,0.00,,,0.11,meteohub,2013-04-13 01:52:00,
2013-04-12 21:57:00,69.8,69.4,29.74,NW,315,2.0,2.0,99,0.00,,,0.11,meteohub,2013-04-13 01:57:00,
2013-04-12 22:02:00,70.0,69.6,29.74,WNW,293,2.0,3.0,99,0.00,,,0.11,meteohub,2013-04-13 02:02:00,
2013-04-12 22:07:00,70.2,69.8,29.75,West,270,2.0,4.0,99,0.00,,,0.11,meteohub,2013-04-13 02:07:00,
2013-04-12 22:12:00,70.3,70.0,29.75,WSW,248,3.0,4.0,99,0.00,,,0.11,meteohub,2013-04-13 02:12:00,
2013-04-12 22:17:00,70.5,70.2,29.75,NW,315,4.0,4.0,99,0.00,,,0.11,meteohub,2013-04-13 02:17:00,
2013-04-12 22:23:00,70.5,70.2,29.76,NW,315,2.0,4.0,99,0.00,,,0.11,meteohub,2013-04-13 02:23:00,
2013-04-12 22:28:00,70.5,70.2,29.75,NW,315,2.0,4.0,99,0.00,,,0.11,meteohub,2013-04-13 02:28:00,
2013-04-12 22:33:00,70.2,69.8,29.75,North,0,4.0,4.0,99,0.00,,,0.11,meteohub,2013-04-13 02:33:00,
2013-04-12 22:39:00,70.0,69.6,29.75,WNW,293,2.0,4.0,99,0.00,,,0.11,meteohub,2013-04-13 02:39:00,
2013-04-12 22:44:00,70.0,69.6,29.76,NW,315,2.0,4.0,99,0.00,,,0.11,meteohub,2013-04-13 02:44:00,
2013-04-12 22:49:00,69.8,69.4,29.76,NW,315,2.0,4.0,99,0.00,,,0.11,meteohub,2013-04-13 02:49:00,
2013-04-12 22:54:00,69.6,69.3,29.76,West,270,2.0,3.0,99,0.00,,,0.11,meteohub,2013-04-13 02:54:00,
2013-04-12 23:00:00,69.4,69.1,29.76,NW,315,2.0,3.0,99,0.00,,,0.11,meteohub,2013-04-13 03:00:00,
2013-04-12 23:05:00,68.9,68.5,29.76,NW,315,2.0,3.0,99,0.00,,,0.11,meteohub,2013-04-13 03:05:00,
2013-04-12 23:10:00,68.7,68.4,29.76,NW,315,2.0,2.0,99,0.00,,,0.11,meteohub,2013-04-13 03:10:00,
2013-04-12 23:15:00,68.7,68.4,29.76,North,0,1.0,3.0,99,0.00,,,0.11,meteohub,2013-04-13 03:15:00,
2013-04-12 23:21:00,68.5,68.2,29.76,NNW,338,1.0,3.0,99,0.00,,,0.11,meteohub,2013-04-13 03:21:00,
2013-04-12 23:27:00,68.2,67.8,29.76,North,0,3.0,3.0,99,0.00,,,0.11,meteohub,2013-04-13 03:27:00,
2013-04-12 23:32:00,68.2,67.8,29.76,North,0,3.0,3.0,99,0.00,,,0.11,meteohub,2013-04-13 03:32:00,
2013-04-12 23:37:00,68.2,67.8,29.76,West,270,3.0,4.0,99,0.00,,,0.11,meteohub,2013-04-13 03:37:00,
2013-04-12 23:42:00,68.4,68.0,29.77,NW,315,2.0,4.0,99,0.00,,,0.11,meteohub,2013-04-13 03:42:00,
2013-04-12 23:47:00,68.2,67.3,29.77,SE,135,2.0,3.0,97,0.00,,,0.11,meteohub,2013-04-13 03:47:00,
2013-04-12 23:52:00,68.2,65.8,29.77,North,0,4.0,4.0,92,0.00,,,0.11,meteohub,2013-04-13 03:52:00,
2013-04-12 23:58:00,68.2,65.1,29.78,NW,315,2.0,4.0,90,0.00,,,0.11,meteohub,2013-04-13 03:58:00,